TimeCDT,TemperatureF,Dew PointF,Humidity,Sea Level PressureIn,VisibilityMPH,Wind Direction,Wind SpeedMPH,Gust SpeedMPH,PrecipitationIn,Events,Conditions,WindDirDegrees,DateUTC
12:53 AM,66.0,64.0,93,29.86,10.0,South,6.9,-,N/A,,Clear,180,2013-10-03 05:53:00
1:53 AM,66.0,64.0,93,29.86,10.0,South,6.9,-,N/A,,Clear,180,2013-10-03 06:53:00
2:53 AM,64.9,64.0,97,29.84,8.0,South,5.8,-,N/A,,Partly Cloudy,170,2013-10-03 07:53:00
3:34 AM,64.4,64.4,100,29.85,5.0,South,5.8,-,N/A,,Scattered Clouds,170,2013-10-03 08:34:00
3:43 AM,64.4,64.4,100,29.85,2.5,South,5.8,-,N/A,,Mostly Cloudy,170,2013-10-03 08:43:00
3:53 AM,64.9,64.0,97,29.84,1.5,South,4.6,-,N/A,,Overcast,170,2013-10-03 08:53:00
4:07 AM,64.4,64.4,100,29.86,2.0,South,4.6,-,N/A,,Overcast,170,2013-10-03 09:07:00
4:14 AM,64.4,64.4,100,29.86,3.0,SSE,4.6,-,N/A,,Overcast,160,2013-10-03 09:14:00
4:53 AM,66.0,64.9,96,29.83,7.0,SSE,6.9,-,N/A,,Partly Cloudy,150,2013-10-03 09:53:00
5:53 AM,66.9,64.9,93,29.81,8.0,SSE,9.2,-,N/A,,Mostly Cloudy,150,2013-10-03 10:53:00
6:21 AM,68.0,66.2,94,29.83,1.8,South,12.7,27.6,0.12,Rain-Thunderstorm,Heavy Thunderstorms and Rain,180,2013-10-03 11:21:00
6:28 AM,69.8,66.2,88,29.84,4.0,SSE,8.1,27.6,0.19,Rain-Thunderstorm,Light Thunderstorms and Rain,160,2013-10-03 11:28:00
6:36 AM,68.0,66.2,94,29.84,7.0,Variable,3.5,-,0.19,Thunderstorm,Thunderstorm,0,2013-10-03 11:36:00
6:44 AM,66.2,66.2,100,29.85,3.0,SW,5.8,-,0.23,Rain-Thunderstorm,Rain,230,2013-10-03 11:44:00
6:53 AM,66.9,66.0,97,29.83,6.0,SW,9.2,-,0.24,Rain-Thunderstorm,Light Rain,230,2013-10-03 11:53:00
7:10 AM,68.0,66.2,94,29.84,9.0,SSW,8.1,-,0.00,Thunderstorm,Mostly Cloudy,210,2013-10-03 12:10:00
7:19 AM,68.0,66.2,94,29.85,9.0,SW,6.9,-,0.00,Thunderstorm,Mostly Cloudy,230,2013-10-03 12:19:00
7:28 AM,68.0,66.2,94,29.86,8.0,SSW,8.1,-,0.00,,Scattered Clouds,210,2013-10-03 12:28:00
7:53 AM,68.0,66.0,93,29.84,6.0,SSW,5.8,-,0.00,,Scattered Clouds,200,2013-10-03 12:53:00
8:53 AM,66.9,64.9,93,29.86,7.0,WSW,9.2,-,0.00,,Overcast,250,2013-10-03 13:53:00
9:53 AM,66.0,64.0,93,29.87,10.0,SSW,5.8,-,0.03,Rain,Light Rain,210,2013-10-03 14:53:00
10:53 AM,66.0,62.1,87,29.83,10.0,South,10.4,-,N/A,,Mostly Cloudy,180,2013-10-03 15:53:00
11:53 AM,68.0,63.0,84,29.80,10.0,South,9.2,-,N/A,,Partly Cloudy,170,2013-10-03 16:53:00
12:53 PM,72.0,62.1,71,29.79,10.0,Variable,6.9,-,N/A,,Clear,0,2013-10-03 17:53:00
1:53 PM,75.9,61.0,60,29.76,10.0,SSW,9.2,-,N/A,,Clear,200,2013-10-03 18:53:00
2:53 PM,79.0,62.1,56,29.76,10.0,South,11.5,-,N/A,,Clear,190,2013-10-03 19:53:00
3:53 PM,79.0,66.0,64,29.76,10.0,SSW,15.0,-,N/A,,Overcast,200,2013-10-03 20:53:00
4:53 PM,79.0,64.9,62,29.75,10.0,South,10.4,-,N/A,,Overcast,180,2013-10-03 21:53:00
5:53 PM,77.0,66.0,69,29.76,10.0,SE,3.5,-,N/A,,Overcast,130,2013-10-03 22:53:00
6:51 PM,75.2,66.2,73,29.79,10.0,SE,3.5,-,N/A,Thunderstorm,Thunderstorm,130,2013-10-03 23:51:00
6:53 PM,75.9,66.9,74,29.77,10.0,SE,3.5,-,N/A,Thunderstorm,Thunderstorm,130,2013-10-03 23:53:00
7:06 PM,75.2,66.2,73,29.79,10.0,SSE,4.6,-,N/A,,Overcast,160,2013-10-04 00:06:00
7:23 PM,75.2,68.0,78,29.79,10.0,SE,3.5,-,N/A,Thunderstorm,Mostly Cloudy,130,2013-10-04 00:23:00
7:38 PM,73.4,66.2,78,29.79,10.0,SE,3.5,-,N/A,,Mostly Cloudy,130,2013-10-04 00:38:00
7:50 PM,73.4,66.2,78,29.79,10.0,SE,3.5,-,N/A,Thunderstorm,Mostly Cloudy,130,2013-10-04 00:50:00
7:53 PM,73.9,66.9,79,29.78,10.0,SE,3.5,-,N/A,Thunderstorm,Mostly Cloudy,130,2013-10-04 00:53:00
8:53 PM,73.0,66.9,81,29.79,10.0,SSW,3.5,-,N/A,Thunderstorm,Thunderstorm,200,2013-10-04 01:53:00
9:19 PM,73.4,68.0,83,29.81,10.0,East,3.5,-,N/A,,Scattered Clouds,100,2013-10-04 02:19:00
9:53 PM,72.0,68.0,87,29.80,10.0,ESE,4.6,-,N/A,,Mostly Cloudy,110,2013-10-04 02:53:00
11:53 PM,71.1,68.0,90,29.80,10.0,SSE,9.2,-,N/A,,Clear,160,2013-10-04 04:53:00